Location: Cheching
(60.0667°N, 164.2167°W)
Time: 14:04:17
(UTC+00:00)

STRAND 1 - Pass Details

Date: 26 January 2021
Orbit: 768 x 780 km, 98.4° (Epoch: 04 March)

Event Time Altitude Azimuth Distance (km) Brightness Sun altitude
Rises 17:53:39 0° 187° (S) 3,239 ? -10.6°
Reaches altitude 10° 17:56:06 10° 195° (SSW) 2,318 ? -10.4°
Maximum altitude 18:00:52 39° 264° (W) 1,165 ? -9.8°
Drops below altitude 10° 18:05:41 10° 333° (NNW) 2,340 ? -9.2°
Sets 18:08:11 0° 341° (NNW) 3,274 ? -8.9°
